COSMOS 249 DEB, 18468

Orbit data source: Space-Track

COSMOS 249 DEB, 18468 is space debris in LEO originally from a launch on Sun, 20 Oct 1968 UTC launched from the Tyuratam Missile And Space Complex (TTMTR). Debris objects in space refer to the collection of defunct objects orbiting the Earth. Examples of debris include non-operational satellites, rocket bodies, and fragments generated from explosions, collisions, or faulty payload assembly.

Loading next visibility...
Identifier
18468, 1968-091DD
Orbit
LEO
Country
Flag of CISCIS
Related business
Manufacturer
Unknown
Mission
Spacecraft
Bus & Motor
Unknown
Mass
Unknown
Launch date (UTC)
1968-10-20 (57 years ago)
Launch vehicle
Unknown
Launch site
Tyuratam Missile And Space Complex (TTMTR)
Object type
Payload
Rocket body
Debris
Shape & HBR
Unknown shape, 0.1 m
Radar Cross Section
Small (<0.1 m²)

Expand to show TLE details & history
Last TLE update: 1 day ago

TLE from 1 day ago
0 COSMOS 249 DEB
1 18468U 68091DD  25286.51830156  .00000490  00000-0  68897-3 0  9997
2 18468  62.2571  24.3245 0768407  36.2738 328.7904 12.81525149567855
Epoch: 2025-10-13T12:26Z
TLE epoch observation values (Epoch: 2025-10-13T12:26:21.254Z)
Latitude
-0.00005°
Longitude
175.41599°
Altitude
843.514 km
Speed
7.665 km/s
True Right ascension
01h 37m 17s
True Declination
0° 00' 00"
Sunlit
Object was in full shadow at epoch
Visualization orbit readout
Latitude
Unknown
Longitude
Unknown
Altitude
Unknown
Speed
Unknown
Apparent Right ascension
Unknown
Apparent Declination
Unknown
Sunlit
N/A
Visualization observer readout
Local Sidereal Time
07:53:45
Azimuth
Unknown
Elevation
Unknown
Doppler factor
Unknown
Orbital elements
Apogee altitude
1,926.973 km
Perigee altitude
741.709 km
Semi-major axis
7,712.478 km
Eccentricity
0.07684
Inclination
62.2571°
RAAN
24.3245°
Arg. of periapsis
36.2738°
True anomaly
323.82729°
Mean anomaly
328.7904°
Eccentric anomaly
326.35087°
Mean motion
3.20444 °/min
Orbital period
112.34 mins
BSTAR
0.00068897
Loading maneuver chart data...
Computing Atmospheric mass density...

Documentation

Showing up to 5 results
|